AirNav   ATP
 
 293 users online  

7OH8 Curtis Airport
Chardon, Ohio, USA

GOING TO CHARDON?


FAA INFORMATION EFFECTIVE 14 SEPTEMBER 2017

Location

FAA Identifier: 7OH8
Lat/Long: 41-38-16.0000N / 081-06-05.0000W
41-38.266667N / 081-06.083333W
41.6377778 / -81.1013889
(estimated)
Elevation: 1250 ft. / 381 m (estimated)
Variation: 07W (1985)
From city: 6 miles NE of CHARDON, OH
Time zone: UTC -4 (UTC -5 during Standard Time)
Zip code: 44024

Airport Operations

Airport use: Private use. Permission required prior to landing
Activation date: 12/1970
Control tower: no
ARTCC: CLEVELAND CENTER
FSS: CLEVELAND FLIGHT SERVICE STATION
Attendance: CONTINUOUS
Wind indicator: yes
Segmented circle: no

Airport Communications

WX AWOS-3PT at LNN (13 nm W): 119.225 (440-942-0809)

Nearby radio navigation aids

VOR radial/distance  VOR name  Freq  Var
CXRr026/7.8CHARDON VOR/DME112.7005W
JFNr250/17.4JEFFERSON VOR/DME115.2005W
YNGr319/26.6YOUNGSTOWN VORTAC109.0005W
ACOr012/32.1AKRON VOR/DME114.4004W

 
NDB name  Hdg/Dist  Freq  Var  ID
LAKELAND110/12.726308WLQL .-.. --.- .-..

Airport Services

Airframe service: NONE
Powerplant service: NONE

Runway Information

Runway N/S

Dimensions: 2100 x 40 ft. / 640 x 12 m
Surface: turf
RUNWAY N  RUNWAY S
Traffic pattern: rightleft
Obstructions: 35 ft. plinetrees

Airport Ownership and Management from official FAA records

Ownership: Privately-owned
Owner: ROBERT E. CURTIS
15215 ROCK CREEK ROAD
CHARDON, OH 44024
Phone 216-298-1416
Manager: ROBERT E. CURTIS
15215 ROCK CREEK ROAD
CHARDON, OH 44024
Phone 216-298-1416

Airport Operational Statistics

Aircraft based on the field: 4
Single engine airplanes: 4
    

Instrument Procedures

There are no published instrument procedures at 7OH8.

Some nearby airports with instrument procedures:

2G1 - Concord Airpark (5 nm W)
7G8 - Geauga County Airport (11 nm S)
KLNN - Willoughby Lost Nation Municipal Airport (13 nm W)
KCGF - Cuyahoga County Airport (18 nm W)
KHZY - Northeast Ohio Regional Airport (20 nm NE)
 
Loc | Ops | Rwys | IFR | FBO | Links
Com | Nav | Svcs | Stats | Notes


 
Area around 7OH8 (Curtis Airport)
 
Road maps at: MapQuest Bing Google
 
Aerial photo
No photo
 
Sectional chart

 
Airport distance calculator
Flying to Curtis Airport? Find the distance to fly.

From to 7OH8

Sunrise and sunset
Times for 26-Sep-2017
 Local
(UTC-4)
 Zulu
(UTC)
Morning civil twilight06:4910:49
Sunrise07:1711:17
Sunset19:1523:15
Evening civil twilight19:4223:42

Current date and time
Zulu (UTC)  26-Sep-2017 08:07:21
Local (UTC-4)  26-Sep-2017 04:07:21
 
METAR
KLNN 
12nm W 
260755Z AUTO 00000KT 10SM CLR 18/18 A3000 RMK AO1 T01830176
KCGF 
17nm W 
260245Z 12006KT 10SM SCT200 25/18 A3002
KHZY 
20nm NE 
260753Z AUTO 12003KT 7SM CLR 19/18 A3004 RMK AO2 SLP163 T01890183
TAF
NOTAMs
Click for the latest NOTAMs
NOTAMs are issued by the DoD/FAA and will open in a separate window not controlled by AirNav.

 

 
 

Would you like to see your business listed on this page?

 If your business provides an interesting product or service to pilots, flight crews, aircraft, or users of the Curtis Airport, you should consider listing it here.  To start the listing process, click on the button below
 
Add a business
 

Other Pages about Curtis Airport

Update a link
 
Copyright © AirNav, LLC. All rights reserved. Privacy Policy  Contact